Weather History for Altus, OK

Change the Weather History Date:

Monday, January 13, 2014

  Actual Average (KLTS) Record (KLTS)
Temperature  
Mean Temperature 46 °F -  
Max Temperature 61 °F 49 °F 62 °F (2004)
Min Temperature 32 °F 26 °F 12 °F (1997)
Degree Days  
Heating Degree Days 18    
Moisture  
Dew Point 16 °F    
Average Humidity 34    
Maximum Humidity 66    
Minimum Humidity 12    
Precipitation  
Precipitation 0.00 in - - ()
Sea Level Pressure  
Sea Level Pressure 30.04 in    
Wind  
Wind Speed 10 mph (WNW)    
Max Wind Speed 17 mph    
Max Gust Speed 25 mph    
Visibility 10 miles    
Events      
Averages and records for this station are not official NWS values.
T = Trace of Precipitation, MM = Missing Value Source: NWS Daily Summary

Daily Weather History Graph

Daily Weather History Graph

Search for Another Location

Airport:

Trip Planner

Search our weather history database for the weather conditions in past years. The results will help you decide how hot, cold, wet, or windy it might be!

Date:

Astronomy

Jan. 13, 2014 Rise Set
Actual Time 7:44 AM CST 5:47 PM CST
Civil Twilight 7:17 AM CST 6:15 PM CST
Nautical Twilight 6:46 AM CST 6:46 PM CST
Astronomical Twilight 6:15 AM CST 7:16 PM CST
Moon 4:03 PM CST (1/13) 5:35 AM CST (1/13)
Length of Visible Light 10h 58m
Length of Day
10h 03m
Waxing Gibbous, 95% of the Moon is Illuminated
Jan 13
Waxing Gibbous
Jan 15
Full
Jan 23
Last Quarter
Jan 30
New
Feb 6
First Quarter

Hourly Weather History & Observations

Time (CST) Temp. Windchill Dew Point Humidity Pressure Visibility Wind Dir Wind Speed Gust Speed Precip Events Conditions
12:20 AM 52.2 °F - 24.8 °F 35% 29.89 in 10.0 mi North 12.7 mph - N/A   Clear
12:35 AM 49.8 °F - 25.2 °F 38% 29.90 in 10.0 mi North 9.2 mph - N/A   Clear
12:55 AM 46.2 °F 41.7 °F 25.0 °F 43% 29.91 in 10.0 mi NNW 9.2 mph - N/A   Clear
1:15 AM 45.5 °F 40.8 °F 25.5 °F 46% 29.93 in 10.0 mi North 9.2 mph - N/A   Clear
1:35 AM 43.7 °F 40.3 °F 25.2 °F 48% 29.94 in 10.0 mi NW 5.8 mph - N/A   Clear
1:55 AM 41.2 °F 37.3 °F 24.1 °F 51% 29.95 in 10.0 mi WNW 5.8 mph - N/A   Clear
2:15 AM 41.2 °F 36.0 °F 24.4 °F 51% 29.97 in 10.0 mi NW 8.1 mph - N/A   Clear
2:35 AM 37.9 °F 33.5 °F 23.7 °F 57% 29.97 in 10.0 mi West 5.8 mph - N/A   Clear
3:00 AM 38.3 °F 33.2 °F 24.3 °F 57% 29.97 in 10.0 mi WNW 6.9 mph - N/A   Clear
3:15 AM 38.3 °F 34.8 °F 24.4 °F 57% 29.97 in 10.0 mi NW 4.6 mph - N/A   Clear
3:35 AM 38.7 °F 36.3 °F 24.8 °F 58% 29.98 in 10.0 mi NNW 3.5 mph - N/A   Clear
3:55 AM 37.9 °F 33.5 °F 24.6 °F 59% 29.98 in 10.0 mi WNW 5.8 mph - N/A   Clear
4:15 AM 35.1 °F 27.9 °F 23.5 °F 63% 29.98 in 10.0 mi West 9.2 mph - N/A   Clear
4:35 AM 33.8 °F 26.4 °F 23.5 °F 66% 29.99 in 10.0 mi NW 9.2 mph - N/A   Clear
4:55 AM 37.0 °F 30.4 °F 23.5 °F 58% 29.99 in 10.0 mi NW 9.2 mph - N/A   Clear
5:15 AM 38.5 °F 33.4 °F 22.6 °F 53% 30.00 in 10.0 mi NW 6.9 mph - N/A   Clear
5:35 AM 40.5 °F 34.1 °F 21.2 °F 46% 30.00 in 10.0 mi NW 10.4 mph - N/A   Clear
5:55 AM 37.2 °F 30.6 °F 21.2 °F 52% 30.02 in 10.0 mi NW 9.2 mph - N/A   Clear
6:15 AM 36.5 °F 28.7 °F 21.2 °F 54% 30.03 in 10.0 mi NW 11.5 mph - N/A   Clear
6:35 AM 36.9 °F 30.1 °F 21.0 °F 53% 30.04 in 10.0 mi NW 9.2 mph - N/A   Clear
6:55 AM 34.5 °F 27.3 °F 20.7 °F 57% 30.04 in 10.0 mi NNW 9.2 mph - N/A   Clear
7:15 AM 34.0 °F 26.0 °F 20.8 °F 59% 30.05 in 10.0 mi NNW 10.4 mph - N/A   Clear
7:35 AM 33.1 °F 25.5 °F 20.3 °F 59% 30.06 in 10.0 mi NNW 9.2 mph - N/A   Clear
7:55 AM 32.0 °F 24.2 °F 20.3 °F 62% 30.07 in 10.0 mi NW 9.2 mph - N/A   Clear
8:15 AM 34.2 °F 26.2 °F 21.2 °F 59% 30.09 in 10.0 mi NNW 10.4 mph - N/A   Clear
8:40 AM 37.9 °F 31.5 °F 21.0 °F 51% 30.09 in 10.0 mi NNW 9.2 mph - N/A   Clear
8:55 AM 39.4 °F 32.7 °F 21.2 °F 48% 30.10 in 10.0 mi NNW 10.4 mph - N/A   Clear
9:15 AM 43.2 °F 36.2 °F 19.6 °F 39% 30.11 in 10.0 mi NNW 13.8 mph - N/A   Clear
9:35 AM 45.3 °F 38.7 °F 18.3 °F 34% 30.11 in 10.0 mi NNW 15.0 mph - N/A   Clear
9:55 AM 46.8 °F - 18.5 °F 32% 30.12 in 10.0 mi NNW 15.0 mph - N/A   Clear
10:15 AM 48.0 °F - 18.7 °F 31% 30.13 in 10.0 mi NNW 12.7 mph - N/A   Clear
10:35 AM 49.5 °F - 18.5 °F 29% 30.13 in 10.0 mi NW 12.7 mph - N/A   Clear
10:55 AM 51.3 °F - 18.7 °F 28% 30.13 in 10.0 mi NW 15.0 mph - N/A   Clear
11:15 AM 52.5 °F - 18.5 °F 26% 30.13 in 10.0 mi NW 15.0 mph - N/A   Clear
11:35 AM 54.3 °F - 18.0 °F 24% 30.11 in 10.0 mi NNW 15.0 mph - N/A   Clear
11:55 AM 55.6 °F - 17.6 °F 23% 30.11 in 10.0 mi NW 17.3 mph - N/A   Clear
12:15 PM 56.3 °F - 17.1 °F 22% 30.10 in 10.0 mi NW 11.5 mph - N/A   Clear
12:35 PM 57.6 °F - 16.7 °F 20% 30.09 in 10.0 mi NNW 16.1 mph 20.7 mph N/A   Clear
12:55 PM 58.6 °F - 14.4 °F 18% 30.08 in 10.0 mi NW 16.1 mph 21.9 mph N/A   Clear
1:15 PM 59.5 °F - 12.2 °F 16% 30.08 in 10.0 mi NNW 15.0 mph 25.3 mph N/A   Clear
1:35 PM 59.9 °F - 11.5 °F 15% 30.07 in 10.0 mi NW 16.1 mph 21.9 mph N/A   Clear
1:55 PM 59.9 °F - 10.9 °F 15% 30.06 in 10.0 mi NNW 12.7 mph 19.6 mph N/A   Clear
2:15 PM 60.8 °F - 11.1 °F 14% 30.06 in 10.0 mi NW 17.3 mph 21.9 mph N/A   Clear
2:35 PM 60.4 °F - 9.5 °F 13% 30.06 in 10.0 mi NW 16.1 mph 21.9 mph N/A   Clear
2:55 PM 61.2 °F - 9.0 °F 13% 30.05 in 10.0 mi NW 17.3 mph 21.9 mph N/A   Clear
3:15 PM 61.5 °F - 9.1 °F 13% 30.05 in 10.0 mi WNW 13.8 mph 17.3 mph N/A   Clear
3:35 PM 61.3 °F - 8.1 °F 12% 30.05 in 10.0 mi West 11.5 mph 20.7 mph N/A   Clear
3:55 PM 61.7 °F - 8.1 °F 12% 30.04 in 10.0 mi NW 10.4 mph - N/A   Clear
4:15 PM 61.2 °F - 7.2 °F 12% 30.04 in 10.0 mi NW 9.2 mph 19.6 mph N/A   Clear
4:35 PM 60.8 °F - 7.2 °F 12% 30.04 in 10.0 mi WNW 12.7 mph - N/A   Clear
4:55 PM 59.9 °F - 7.2 °F 12% 30.04 in 10.0 mi WNW 11.5 mph - N/A   Clear
5:15 PM 57.7 °F - 9.1 °F 15% 30.04 in 10.0 mi West 6.9 mph - N/A   Clear
5:35 PM 54.9 °F - 9.1 °F 16% 30.04 in 10.0 mi West 9.2 mph - N/A   Clear
5:55 PM 52.5 °F - 8.4 °F 17% 30.04 in 10.0 mi WSW 5.8 mph - N/A   Clear
6:15 PM 50.0 °F - 8.6 °F 19% 30.04 in 10.0 mi SW 5.8 mph - N/A   Clear
6:35 PM 46.4 °F 43.5 °F 9.5 °F 22% 30.04 in 10.0 mi SW 5.8 mph - N/A   Clear
6:55 PM 46.9 °F - 9.3 °F 22% 30.04 in 10.0 mi SW 6.9 mph - N/A   Clear
7:15 PM 45.3 °F 42.3 °F 9.1 °F 23% 30.04 in 10.0 mi SW 5.8 mph - N/A   Clear
7:35 PM 42.6 °F 37.2 °F 9.9 °F 26% 30.04 in 10.0 mi SSW 9.2 mph - N/A   Clear
7:55 PM 42.1 °F 37.1 °F 9.3 °F 26% 30.05 in 10.0 mi SSW 8.1 mph - N/A   Clear
8:15 PM 42.4 °F 38.8 °F 8.6 °F 25% 30.05 in 10.0 mi SSW 5.8 mph - N/A   Clear
8:35 PM 41.9 °F 38.2 °F 8.4 °F 25% 30.05 in 10.0 mi SW 5.8 mph - N/A   Clear
8:55 PM 40.8 °F 38.8 °F 9.0 °F 27% 30.05 in 10.0 mi WSW 3.5 mph - N/A   Clear
9:20 PM 39.6 °F 37.4 °F 9.7 °F 29% 30.05 in 10.0 mi WNW 3.5 mph - N/A   Clear
9:35 PM 40.1 °F 38.0 °F 9.0 °F 28% 30.05 in 10.0 mi West 3.5 mph - N/A   Clear
9:55 PM 42.1 °F 40.2 °F 7.9 °F 25% 30.05 in 10.0 mi SW 3.5 mph - N/A   Clear
10:15 PM 41.9 °F 40.0 °F 7.5 °F 24% 30.04 in 10.0 mi SW 3.5 mph - N/A   Clear
10:35 PM 40.3 °F 38.2 °F 7.7 °F 26% 30.04 in 10.0 mi SW 3.5 mph - N/A   Clear
10:55 PM 39.2 °F 35.0 °F 7.9 °F 27% 30.04 in 10.0 mi SW 5.8 mph - N/A   Clear
11:15 PM 37.2 °F 32.6 °F 8.6 °F 31% 30.04 in 10.0 mi SW 5.8 mph - N/A   Clear
11:35 PM 37.4 °F 34.9 °F 8.2 °F 30% 30.03 in 10.0 mi WSW 3.5 mph - N/A   Clear
11:55 PM 37.2 °F 33.6 °F 8.4 °F 30% 30.03 in 10.0 mi WSW 4.6 mph - N/A   Clear